Location: Waverly
(39.3325°N, 76.6061°W)
Time: 02:38:02
(UTC+00:00)

BlueWalker 3 - Pass Details

Date: 09 December 2025
Orbit: 451 x 463 km, 53.2° (Epoch: 19 January)

Event Time Altitude Azimuth Distance (km) Brightness Sun altitude
Rises 00:18:32 0° 293° (WNW) 2,497 6.3 -29.3°
Reaches altitude 10° 00:21:21 10° 270° (W) 1,617 5.4 -29.8°
Maximum altitude 00:23:31 15° 234° (SW) 1,327 4.7 -30.3°
Enters shadow 00:23:43 15° 230° (SW) 1,329 4.6 -30.3°
